Location: *
(44.3925°N, 5.4708°E)
Time: 05:36:08
(UTC+00:00)

Meteor 1-4 Rocket - Pass Details

Date: 18 September 2019
Orbit: 449 x 504 km, 81.2° (Epoch: 16 October)

Event Time Altitude Azimuth Distance (km) Brightness Sun altitude
Rises 19:50:04 0° 345° (NNW) 2,522 6.8 -22.5°
Reaches altitude 10° 19:52:12 10° 341° (NNW) 1,630 5.8 -22.8°
Enters shadow 19:55:37 54° 269° (W) 565 3.1 -23.4°
